Regional Weather Roundup
Issued by NWS

Home | Current Version | Previous Version | Graphics & Text | Print | Product List | Glossary On
Versions: 1 2 3 4 5 6 7 8 9 10 11 12 13 14 15 16 17 18 19 20 21 22 23 24 25 26 27 28 29 30 31 32 33 34 35 36 37 38 39 40 41 42 43 44 45 46 47 48 49 50
673
ASUS44 KJAN 031410
RWRMS

MISSISSIPPI HOURLY WEATHER ROUNDUP
NATIONAL WEATHER SERVICE JACKSON MS
800 AM CST TUE MAR 03 2015

NOTE: "FAIR: INDICATES FEW OR NO CLOUDS BELOW 12,000 FEET WITH NO
SIGNIFICANT WEATHER AND/OR OBSTRUCTIONS TO VISIBILITY.

MSZ001>002-007>008-010>013-018>021-025>028-034>036-031500-
NORTHWEST MISSISSIPPI

CITY           SKY/WX    TMP DP  RH WIND       PRES   REMARKS
CLARKSDALE     CLOUDY    45  45 100 CALM      30.10F VSB<1/4
CLEVELAND      FOG       44  44 100 S6        30.09F VSB 3/4
GREENWOOD      CLOUDY    54  53  97 CALM      30.10S
GREENVILLE     FOG       44  43  96 S7        30.09S VSB 1/2
OLIVE BRANCH   FOG       46  46 100 S9        30.07F VSB 1
OXFORD         FOG       46  46 100 S7        30.11S VSB 1/4
TUNICA         FOG       43  43 100 S6        30.09S VSB 3/4
$$

MSZ003>006-009-014>017-022>024-029>033-037>039-031500-
NORTHEAST MISSISSIPPI

CITY           SKY/WX    TMP DP  RH WIND       PRES   REMARKS
COLUMBUS AFB   FOG       50  50 100 SE5       30.13F VSB 1/4
CORINTH        CLOUDY    50  48  93 S8        30.10S FOG
GOLDN TRIANGLE FOG       52  48  87 S8        30.13S VSB 1/2
STARKVILLE     FOG       50  50 100 S6        30.14R VSB 1/2
TUPELO         FOG       48  47  96 SW6       30.13S VSB 1/2
$$

MSZ040-058-031500-
CENTRAL MISSISSIPPI

CITY           SKY/WX    TMP DP  RH WIND       PRES   REMARKS
JACKSON INTL   FOG       60  59  96 S8        30.12S VSB 1
JACKSON HAWKNS FOG       55  55 100 SE5       30.12S VSB 1/4
MERIDIAN KEY   FOG       55  54  96 CALM      30.16R VSB 3/4
MERIDIAN NAS   FOG       53  52  96 CALM      30.16R VSB 1
VICKSBURG      FOG       49  48  97 S3        30.10F VSB 1/4
$$

MSZ059>079-031500-
SOUTH MISSISSIPPI

CITY           SKY/WX    TMP DP  RH WIND       PRES   REMARKS
BROOKHAVEN     CLOUDY    61  61 100 CALM      30.14F
HATTIESBURG    FOG       62  61  96 CALM      30.16R VSB 1/4
MCCOMB         FOG       64  64 100 SE5       30.13S VSB 1/4
NATCHEZ        CLOUDY    59  57  94 SE9       30.11S
PINE BELT      CLOUDY    61  59  94 SE3       30.16S VSB<1/4
$$

MSZ080>082-031500-
COASTAL MISSISSIPPI

CITY           SKY/WX    TMP DP  RH WIND       PRES   REMARKS
BAY ST LOUIS   CLOUDY    64  63  94 SE3       30.16R
BILOXI         MOSUNNY   66  66 100 SE9       30.16R FOG
PASCAGOULA     CLOUDY    63  63 100 SE5       30.17R
GULFPORT       CLOUDY    64  63  96 SE8       30.16R FOG
$$



USA.gov is the U.S. government's official web portal to all federal, state and local government web resources and services.